Location: *
(46.6493°S, 172.4352°W)
Time: 04:39:48
(UTC+00:00)

Daily predictions for brighter satellites

Satellite Brightness Start Highest point End
(mag) Time Altitude Azimuth Time Altitude Azimuth Time Altitude Azimuth
Molniya-1 3.2 06:39:55 10° SW 06:42:20 77° SE 06:47:55 10° NE
In-Cosmos 22 Rocket 4.4 06:39:42 10° N 06:45:19 57° E 06:51:05 10° SSE
Cosmos 1953 Rocket 4.3 06:42:56 10° NNW 06:47:26 64° W 06:52:00 10° S
OE (NEXTSAT) 4.4 06:46:11 10° WNW 06:49:40 64° NNE 06:53:09 10° E
Cosmos 405 3.7 06:47:40 10° S 06:51:01 36° ESE 06:54:20 10° NE
Cosmos 1892 2.9 06:47:38 10° N 06:51:27 55° E 06:55:17 10° SSE
H-2A R/B 2.6 06:50:54 10° SSE 06:55:37 37° E 07:00:24 10° NNE
Cosmos 1375 Rocket 4.5 06:50:38 10° NNW 06:56:50 64° ENE 07:03:07 10° SE
Cosmos 2221 2.6 06:52:58 10° S 06:57:20 67° E 07:01:41 10° NNE
CSL-04 Rocket 4.3 06:52:34 10° SSE 06:57:41 37° E 07:02:47 10° NNE
Cosmos 1842 Rocket 3.6 06:55:12 10° S 06:59:48 80° E 07:04:20 10° NNE
Cosmos 1408 3.0 06:56:38 10° NNE 07:00:14 45° E 07:03:53 10° SSE
Cosmos 1570 Rocket 4.2 06:55:00 10° SSW 07:00:21 65° ESE 07:05:40 10° NNE
Cosmos 2333 4.4 06:55:02 10° SSW 07:00:53 84° WNW 07:06:42 10° NNE
Cosmos 540 Rocket 3.5 06:56:10 10° SSW 07:01:25 72° ESE 07:06:37 10° NNE
Nadezhda 1 Rocket 4.0 06:55:48 10° S 07:02:02 72° E 07:08:08 10° NNE
Lacrosse 5 rocket 3.8 06:59:06 10° WSW 07:02:36 21° S 07:05:59 10° SE
Cosmos 1939 Rocket 3.9 06:59:40 10° S 07:03:49 54° WSW 07:07:53 10° NNW
Cosmos 841 Rocket 3.5 06:59:12 10° SSW 07:04:29 75° ESE 07:09:45 10° NNE
COSMOS 2428 2.8 06:59:02 10° SSW 07:04:47 67° ESE 07:10:30 10° NE
Cosmos 2333 Rocket 2.3 07:00:24 10° SSW 07:06:15 86° ESE 07:12:04 10° NNE
Cosmos 1346 Rocket 3.2 07:03:00 10° NNE 07:06:51 45° E 07:10:45 10° SSE
Okean-O 2.6 07:02:29 10° SSE 07:07:02 84° ENE 07:11:31 10° NNW
Cosmos 2208 Rocket 4.2 07:01:54 10° SSW 07:07:16 62° ESE 07:12:29 10° NE
Cosmos 2084 Rocket 3.4 07:03:04 10° SW 07:07:26 85° SE 07:11:24 12° NE
Helios 1A Rocket 3.1 07:04:38 10° SSE 07:08:53 83° WSW 07:13:04 10° NNW
Cosmos 1741 Rocket 4.3 07:05:10 10° NNW 07:10:26 74° WSW 07:15:47 10° SSE
ATLAS CENTAUR R/B 3.7 07:06:18 10° WNW 07:10:29 32° SW 07:14:51 10° SSE
Cosmos 2219 4.5 07:07:57 10° NE 07:12:00 20° E 07:16:03 10° SE
Cosmos 921 Rocket 4.4 07:08:39 10° SW 07:12:34 37° WNW 07:16:27 10° NNW
Cosmos 1825 2.6 07:10:18 10° NNE 07:13:53 42° E 07:17:32 10° SSE
Cosmos 2237 Rocket 3.1 07:10:12 10° SSW 07:15:29 36° SE 07:19:55 14° ENE
USA 229 DEB 4.0 07:09:01 10° NNW 07:16:33 60° ENE 07:23:45 10° SE
USA 229 4.0 07:09:07 10° NNW 07:16:39 59° ENE 07:23:51 10° SE
Cosmos 1076 Rocket 3.6 07:13:47 10° N 07:18:04 58° E 07:22:27 10° SSE
SJ-6B 4.4 07:15:42 10° SE 07:18:19 17° E 07:19:30 15° ENE
ISS -2.4 07:19:18 10° WSW 07:22:32 36° S 07:25:45 10° ESE
USA 267 3.2 07:16:22 10° SE 07:23:01 74° NE 07:29:36 10° NW
Cosmos 2360 Rocket 3.9 07:18:09 10° SW 07:23:10 32° WNW 07:28:09 10° NNW
USA 281 3.5 07:17:32 10° SSE 07:24:13 78° WSW 07:30:47 10° NNW
Cosmos 1745 Rocket 4.1 07:18:45 10° N 07:25:09 87° W 07:31:36 10° S
Cosmos 1980 4.3 07:20:58 10° SSW 07:26:26 44° SE 07:30:34 17° ENE
Cosmos 1340 3.7 07:23:03 10° NNW 07:26:47 50° WSW 07:30:33 10° S
CZ-4 R/B 2.2 07:22:48 10° S 07:27:02 58° WSW 07:31:07 10° NNW
H-2A R/B 3.4 07:25:46 12° NNE 07:29:34 71° ESE 07:33:47 10° S
NOSS 3-1 (A) 4.2 07:22:52 10° NNW 07:31:30 62° ENE 07:39:08 10° SE
CSL-04 Debris 4.1 07:32:30 10° SSE 07:38:00 81° ENE 07:43:26 10° NNW
SJ-11-01 4.3 07:34:30 10° SSE 07:39:20 86° WSW 07:44:04 10° NNW
SL-16 R/B 3.7 07:36:44 10° S 07:41:23 24° SE 07:44:56 14° E
Cosmos 2227 Rocket 3.0 07:43:13 18° NNE 07:46:14 29° ENE 07:51:04 10° SE
NOSS 3-1 (C) 4.3 07:41:07 10° NW 07:49:55 82° SW 07:57:34 10° SE
USA 186 1.8 07:46:41 10° SSE 07:50:00 58° E 07:51:42 25° N
TELKOM 3 4.2 07:46:14 10° WSW 07:50:04 58° SSE 07:51:41 26° E
Cosmos 2219 Rocket 2.9 07:44:41 10° SW 07:50:11 51° WNW 07:55:28 11° N
Cosmos 1606 2.8 07:47:13 10° S 07:51:03 59° E 07:52:50 28° NNE
Cosmos 1441 Rocket 4.5 07:51:25 23° E 07:51:25 23° E 07:54:28 10° SE
Cosmos 1151 Rocket 3.9 07:48:09 10° S 07:52:14 35° ESE 07:53:48 26° ENE
Cosmos 1709 Rocket 4.0 07:48:39 10° N 07:55:00 90° W 08:01:21 10° S
MOS 1-B Rocket 4.5 07:49:58 18° NNE 07:55:53 66° ESE 08:02:24 10° S
FREGAT/IRIS 3.3 07:54:18 10° SSE 07:56:10 31° ESE 07:56:10 31° ESE
USA 234 3.3 07:53:29 22° NE 07:58:06 90° SE 08:04:46 10° SW
CZ-2C R/B 4.3 07:53:57 10° S 07:59:11 48° WSW 08:04:37 10° NW
NOSS 0 Rocket 4.0 07:57:36 10° SSW 08:03:51 77° WNW 08:07:59 22° NNE
Meteor 1-4 Rocket 4.4 08:03:15 10° SSE 08:05:40 17° ESE 08:05:40 17° ESE
Cosmos 1328 Rocket 4.1 08:02:10 10° S 08:06:32 43° ESE 08:07:54 33° ENE
Cosmos 389 Rocket 2.6 08:03:54 10° S 08:07:33 62° ESE 08:08:27 44° NE
Cosmos 1933 3.5 08:03:40 10° S 08:07:47 56° ESE 08:09:05 38° NE
Cosmos 2151 3.0 08:04:24 14° N 08:08:02 87° WSW 08:12:24 10° S
Cosmos 2074 Rocket 4.3 08:04:50 24° NNE 08:08:19 48° E 08:14:22 10° SSE
Resurs 01 Rocket 3.0 08:04:48 10° SE 08:08:04 22° E 08:08:04 22° E
OBJECT-B 1.3 08:08:01 10° SSE 08:11:03 43° E 08:11:03 43° E
Meteor 2-17 Rocket 4.4 08:11:27 20° N 08:15:50 66° E 08:22:00 10° SSE
Cosmos 1408 Rocket 4.2 08:15:31 34° ENE 08:15:56 35° E 08:19:59 10° SSE
Cosmos 2181 Rocket 4.0 08:10:03 10° S 08:16:18 83° W 08:20:43 21° N
Cosmos 836 Rocket 4.4 08:14:31 10° SSW 08:19:50 79° ESE 08:22:00 36° NNE
ARGOS 3.7 08:15:35 10° S 08:20:56 60° WSW 08:26:16 10° NNW
Cosmos 2297 Rocket 2.1 08:20:12 10° NNW 08:25:49 69° ENE 08:31:31 10° SSE
Timation 2 Rocket 4.1 08:19:16 10° NNW 08:26:08 88° ENE 08:32:51 10° SSE
Cosmos 1782 3.3 08:22:48 10° S 08:26:46 43° ESE 08:27:04 42° E
OE (NEXTSAT) 4.2 08:23:42 10° W 08:27:13 79° N 08:27:19 78° NNE
Cosmos 1932 4.5 08:21:19 10° SW 08:27:40 83° NW 08:30:38 34° NNE
Cosmos 968 Rocket 3.4 08:26:45 11° NNW 08:31:46 88° WSW 08:36:59 10° SSE
H-2A R/B 3.8 08:30:28 10° S 08:34:58 32° WSW 08:39:32 10° NW
Ariane Rocket 3.0 08:32:49 10° SSE 08:38:00 81° WSW 08:41:24 22° NNW
Cosmos 1515 Rocket 3.7 08:36:24 10° S 08:40:53 58° ESE 08:41:22 54° ENE
Lacrosse 5 rocket 3.2 08:39:11 10° SW 08:42:57 27° SSE 08:44:59 18° ESE
Cosmos 2154 Rocket 4.1 08:46:27 41° NNE 08:48:36 61° E 08:54:57 10° SSE
Meteor 2-3 Rocket 3.8 08:46:37 25° NNW 08:50:09 81° W 08:56:03 10° S
Cosmos 1486 Rocket 4.5 08:45:18 10° NW 08:50:30 60° WSW 08:55:46 10° SSE
Cosmos 773 Rocket 4.3 08:45:44 10° SSW 08:50:50 49° ESE 08:51:44 44° E
Nadezhda 3 Rocket 4.0 08:45:34 10° S 08:51:48 67° E 08:53:37 46° NE
SJ-6B 4.0 08:49:30 10° S 08:53:09 40° WSW 08:55:08 22° NW
Resurs 1-3 3.6 08:50:13 10° SSE 08:54:43 85° WSW 08:55:35 58° NNW
Cosmos 2219 3.5 08:49:52 10° NW 08:55:34 69° WSW 09:01:18 10° SSE
ISS -2.8 08:56:08 10° WSW 08:58:41 47° WSW 08:58:41 47° WSW
Cosmos 2237 Rocket 3.0 08:54:15 10° SW 08:59:39 43° WNW 09:01:45 31° NNW
MetOp-B 4.5 08:54:45 10° SSE 08:59:58 45° E 08:59:58 45° E
Cosmos 1503 Rocket 4.0 08:57:42 32° NNW 09:00:17 85° WSW 09:05:46 10° SSE
SeaSat 1 2.7 08:55:48 10° SE 09:00:08 48° E 09:00:08 48° E
Cosmos 1633 3.3 09:01:51 46° W 09:02:08 47° WSW 09:05:43 10° S
SAR-Lupe-2 4.4 09:02:15 44° W 09:02:15 44° W 09:05:47 10° SSW
Cosmos 2228 Rocket 3.5 08:59:13 10° S 09:03:22 49° ESE 09:03:22 49° ESE
USA 81 4.2 09:04:04 54° ENE 09:04:24 55° E 09:09:39 10° SSE
Cosmos 2082 3.6 09:03:43 57° NNE 09:04:36 65° ENE 09:10:17 10° SSE
USA 267 4.1 08:59:29 10° SE 09:05:50 50° SSW 09:12:09 10° W
Cosmos 1862 4.5 09:09:00 34° SE 09:09:00 34° SE 09:11:43 10° SSE
Meteor 1-10 Rocket 4.5 09:02:18 10° S 09:08:07 58° ESE 09:09:05 52° ENE
IGS 5A 4.3 09:04:53 10° SSE 09:07:56 40° SE 09:07:56 40° SE
Landsat 7 4.4 09:04:38 10° SSE 09:08:42 45° ESE 09:08:42 45° ESE
Cosmos 1867 3.4 09:05:47 10° SW 09:11:14 87° SE 09:11:58 68° NE
Cosmos 1354 Rocket 4.1 09:09:29 39° NNW 09:11:33 78° WSW 09:16:59 10° SSE
Cosmos 1500 Rocket 3.7 09:13:48 65° SE 09:13:48 65° SE 09:17:51 10° SSE
Cosmos 1943 4.5 09:09:36 10° S 09:14:33 29° SE 09:16:02 26° ESE
Cosmos 1743 Rocket 3.7 09:25:01 78° SSW 09:25:01 78° SSW 09:29:19 10° S
CENTAUR R/B 3.8 09:19:33 10° SSW 09:24:50 28° SSE 09:27:34 19° ESE
SL-16 R/B 2.2 09:20:20 10° SSW 09:26:04 70° WNW 09:26:49 62° NNW
ERS-1 Rocket 4.2 09:21:46 10° SSE 09:25:07 29° ESE 09:25:07 29° ESE
Timation 1 Rocket 4.4 09:29:35 56° E 09:29:35 56° E 09:35:12 10° SE
Cosmos 2227 Rocket 3.0 09:24:52 12° NW 09:30:01 50° WSW 09:35:37 10° SSE
Thor Agena Rocket 3.4 09:30:50 78° E 09:30:56 79° ESE 09:36:07 10° SSW
Cosmos 1812 3.6 09:27:18 10° S 09:30:12 47° S 09:30:12 47° S
Cosmos 2263 Rocket 3.4 09:38:43 28° ESE 09:38:43 28° ESE 09:42:03 10° SE
Meteor 1-27 Rocket 3.9 09:31:02 10° S 09:37:02 62° ESE 09:37:29 60° E
SPOT 3 Rocket 4.2 09:34:20 10° S 09:39:23 51° WSW 09:40:59 37° WNW
Meteor 1-4 Rocket 4.3 09:37:30 10° SSW 09:39:51 29° WSW 09:39:51 29° WSW
USA 234 4.3 09:40:50 29° NW 09:41:37 29° NW 09:47:17 10° WSW
Cosmos 962 Rocket 4.4 09:41:27 64° N 09:42:32 88° W 09:48:51 10° S
OBJECT-B 3.8 09:41:38 10° SW 09:43:12 13° WSW 09:44:13 11° W
Resurs 01 Rocket 2.6 09:40:44 10° S 09:45:02 42° WSW 09:45:38 40° W
Cosmos 1538 Rocket 3.9 09:40:55 10° SSW 09:45:59 82° SSE 09:45:59 82° SSE
Cosmos 1805 Rocket 4.2 09:51:44 54° S 09:51:44 54° S 09:55:16 10° S
ARIANE 5 R/B 3.1 09:46:59 10° S 09:50:42 58° SSW 09:50:42 58° SSW
Cosmos 1680 Rocket 4.5 09:47:35 10° S 09:52:30 36° ESE 09:52:39 36° ESE
Cosmos 2341 Rocket 4.1 09:58:34 62° NW 09:59:37 75° W 10:06:05 10° S
USA 238 DEB 4.0 09:53:10 10° SW 10:00:07 59° SE 10:01:45 48° E
USA 238 4.0 09:53:16 10° SW 10:00:13 59° SE 10:01:51 47° E
Gbstr 26 Del rocket 4.2 10:03:22 61° ENE 10:03:22 61° ENE 10:09:12 10° ESE
Terra 3.0 09:58:48 10° SSE 10:01:59 35° SE 10:01:59 35° SE
NOSS 3-2 (A) 3.5 09:58:32 10° SW 10:05:10 66° SE 10:05:48 62° E
Lacrosse 4 Rocket 4.3 10:04:18 10° SSE 10:05:43 11° SSE 10:07:07 10° SE
Spot 2 Rocket 3.6 10:00:44 10° S 10:05:39 70° SW 10:05:39 70° SW
Cosmos 2218 Rocket 3.8 10:08:52 82° NE 10:09:04 85° E 10:15:21 10° S
Cosmos 2297 Rocket 4.3 10:05:49 10° W 10:10:24 25° SW 10:15:02 10° S
GEOS 3 Rocket 4.3 10:07:34 10° SE 10:11:03 44° ESE 10:11:03 44° ESE
Cosmos 1603 3.7 10:10:50 10° SSW 10:16:28 82° SSE 10:16:28 82° SSE
SPOT 5 3.2 10:14:39 10° SSE 10:19:23 72° SSE 10:19:23 72° SSE
Cosmos 2227 4.4 10:23:24 66° SE 10:23:24 66° SE 10:28:26 10° SSE
SL-8 Rocket 4.1 10:21:57 62° WNW 10:22:38 67° W 10:29:00 10° S
Lacrosse 5 rocket 3.1 10:18:21 10° SW 10:20:37 30° SW 10:20:37 30° SW
Cosmos 158 Rocket 4.3 10:20:23 10° SSW 10:25:12 68° S 10:25:12 68° S
Cosmos 1821 Rocket 4.4 10:28:52 51° E 10:28:52 51° E 10:34:46 10° SSE
SJ 16-02 2.7 10:32:47 36° SSE 10:32:47 36° SSE 10:35:27 10° SSE
SPOT 1/Viking Rocket 4.4 10:28:51 10° S 10:33:49 44° WSW 10:34:08 43° WSW
Resurs 1-4 Rocket 4.2 10:33:49 16° ESE 10:35:06 18° ESE 10:38:32 10° SSE
SeaSat 1 4.1 10:33:41 10° S 10:37:58 29° SW 10:39:54 23° W
Meteor 1-20 Rocket 4.3 10:43:04 76° SSE 10:43:04 76° SSE 10:48:32 10° SSE
Cosmos 1898 Rocket 4.4 10:44:08 41° SE 10:44:08 41° SE 10:47:49 10° SSE
Helios 1B rocket 4.3 10:49:47 27° SSE 10:49:47 27° SSE 10:52:16 10° S
Meteor 2-4 Rocket 4.5 10:43:33 10° S 10:48:30 42° ESE 10:48:30 42° ESE
Cosmos 1633 Rocket 4.4 10:50:42 38° SSW 10:50:42 38° SSW 10:53:42 10° S
CZ-2D R/B 3.9 10:50:36 22° ESE 10:51:41 24° ESE 10:56:01 10° S
Cosmos 2344 4.5 10:39:09 10° SW 10:53:51 82° NW 10:57:38 51° NNE
Cosmos 1943 3.8 10:53:22 10° SW 10:57:50 47° WSW 10:57:50 47° WSW
ERS-1 Rocket 4.1 11:00:30 10° S 11:05:08 36° WSW 11:05:08 36° WSW
Meteor 2-20 4.4 10:59:42 10° S 11:05:42 83° SSW 11:05:42 83° SSW
NOSS 3-2 (C) 3.4 10:59:29 10° SW 11:05:30 74° SW 11:05:30 74° SW
NOSS 3-4 (A) 4.2 11:07:30 57° ENE 11:07:35 57° ENE 11:15:15 10° SE
NOSS 3-4 (C) 4.2 11:07:36 56° ENE 11:07:40 56° ENE 11:15:20 10° SE
Cosmos 1844 Rocket 3.8 11:11:39 35° ESE 11:11:39 35° ESE 11:15:33 10° SE
CENTAUR R/B 2.7 11:10:12 10° SW 11:14:43 52° SW 11:14:43 52° SW
Meteor 2-20 Rocket 4.4 11:09:46 10° S 11:15:50 81° SE 11:15:50 81° SE
Cosmos 1934 Rocket 4.0 11:18:14 71° E 11:18:14 71° E 11:24:29 10° SSE
CZ-4C R/B 4.0 11:19:41 29° ENE 11:19:41 29° ENE 11:25:11 10° ESE
Cosmos 2263 Rocket 3.0 11:20:22 42° WSW 11:20:49 43° SW 11:26:14 10° SSE
ATLAS 2AS CENTAUR R/B 2.9 11:28:23 49° E 11:28:23 49° E 11:33:29 10° SE
Cosmos 2123 Rocket 3.9 11:24:26 10° S 11:30:43 87° SSW 11:30:43 87° SSW
Meteor 1-5 Rocket 4.4 11:35:39 69° ESE 11:35:39 69° ESE 11:41:02 10° SSE
Terra 3.6 11:37:06 10° S 11:40:53 24° WSW 11:40:53 24° WSW
Lacrosse 4 Rocket 2.9 11:41:07 10° SSW 11:44:07 37° S 11:44:07 37° S
Gbstr 26 Del rocket 4.4 11:45:41 25° W 11:50:06 64° SSW 11:56:09 10° ESE
Cosmos 1937 Rocket 4.1 11:52:33 53° SW 11:52:33 53° SW 11:57:25 10° SSE
COSMOS 2455 4.4 11:54:29 22° ENE 11:54:29 22° ENE 11:58:44 10° ESE
